TIME,DELAY(SENSOR),PRES,OXYGEN,RAWTEMP,T(OPTODE),TCPHASE,FLUOR,BETA(BETA700),BETA(BETA412),BETA(BETA440),CDOM,C(CSC),ED(ED412.40),ED(ED444.00),ED(ED489.70),ED(ED554.30),LU(LU411.80),LU(LU443.40),LU(LU489.60),LU(LU554.10),COMP,TILTX,TILTY,CHECK
1348284828,5811,858.0999755859375000,43.4395904541015600,660.5913696289062000,4.6085000038146970,54.4901084899902340,53,101,87,79,81,15240,2147755620,2147428461,2148007990,2147874880,2147640493,2147067346,2148259273,2147197065,523,5,13,34434
1348288424,5805,913.8300170898438000,47.7936782836914060,672.9099731445312000,4.2020230293273930,54.0109596252441400,52,100,84,79,80,15241,2147758390,2147425645,2148006217,2147873188,2147645165,2147056832,2148260900,2147196836,3189,5,13,20769
1348292024,5808,960.1099853515625000,47.4698905944824200,672.3754882812500000,4.2196922302246090,54.0556488037109400,52,99,87,79,81,15164,2147760576,2147425536,2148009883,2147876260,2147645275,2147063872,2148259291,2147200521,369,5,13,51910
1348295624,5809,986.7399902343750000,47.8129081726074200,674.3314819335938000,4.1550059318542480,54.0267982482910160,54,101,90,78,80,15162,2147760539,2147425170,2148006692,2147874989,2147644342,2147062308,2148264192,2147195428,2899,5,13,8464
1348299224,5809,992.7899780273438000,48.2563209533691400,675.3483276367188000,4.1213631629943850,53.9822196960449200,53,100,86,80,81,15157,2147761664,2147423003,2148008667,2147874349,2147646189,2147064512,2148263561,2147196726,226,5,13,32618
1348302824,5811,1006.1799926757812000,47.6956481933593750,673.4323120117188000,4.1847519874572750,54.0329284667968750,53,100,87,78,81,15159,2147760146,2147425371,2148012553,2147872685,2147643309,2147066130,2148264539,2147198500,3346,5,13,63010
1348306424,5808,995.9600219726562000,47.4271812438964840,673.4406127929688000,4.1844730377197270,54.0686302185058600,52,100,87,80,82,15157,2147761289,2147423908,2148010898,2147875200,2147643437,2147062646,2148262217,2147197869,3491,4,13,58715
1348310024,5809,996.6599731445312000,47.7142105102539060,674.4176025390625000,4.1521568298339840,54.0474205017089840,53,99,86,81,82,15154,2147762340,2147425819,2148007579,2147871789,2147643072,2147063497,2148258368,2147195684,3362,5,13,28768
1348313624,5811,989.6500244140625000,48.3503303527832000,676.4365234375000000,4.0853390693664550,53.9777107238769500,52,98,90,78,82,15126,2147760658,2147422628,2148010203,2147873024,2147642715,2147062098,2148263341,2147197705,3289,5,13,16670
1348317224,5806,984.6699829101562000,48.6487388610839840,678.3350830078125000,4.0224628448486330,53.9642486572265600,52,100,86,79,81,15132,2147763520,2147421485,2148008640,2147874971,2147645357,2147061037,2148264420,2147200192,267,5,13,58317
1348320824,5809,979.9000244140625000,49.4557685852050800,679.8875732421875000,3.9710140228271484,53.8716812133789060,54,103,88,81,81,15128,2147758125,2147425645,2148008722,2147873106,2147648969,2147059675,2148260891,2147196864,160,5,13,27605
1348324424,5807,993.3699951171875000,48.6809692382812500,677.3516235351562000,4.0550379753112790,53.9451713562011700,52,97,88,81,81,15129,2147759707,2147423387,2148007168,2147875949,2147640000,2147063798,2148262564,2147197184,3397,4,13,57455
1348328024,5809,995.6799926757812000,48.2666816711425800,677.9113769531250000,4.0364952087402340,54.0090599060058600,52,100,89,80,81,15129,2147758409,2147426294,2148009782,2147871195,2147644736,2147061979,2148263350,2147196251,282,5,13,53073
1348331624,5809,994.1199951171875000,48.2760314941406250,678.2050170898438000,4.0267729759216310,54.0127906799316400,52,98,88,81,80,15125,2147758217,2147421824,2148010066,2147871890,2147645494,2147065408,2148262006,2147196973,335,5,13,10027
1348335224,5809,999.1500244140625000,48.5647888183593750,678.1948242187500000,4.0271110534667970,53.9747085571289060,53,102,89,79,81,15088,2147759195,2147423890,2148010157,2147874322,2147644672,2147064356,2148264594,2147195410,460,4,13,9572
1348338824,5810,1007.7800292968750000,48.3897590637207000,676.8165283203125000,4.0727581977844240,53.9819107055664060,53,97,88,79,82,15085,2147761920,2147419328,2148009453,2147872475,2147645028,2147057691,2148261897,2147194779,391,5,13,1563
1348342424,5810,1000.6900024414062000,47.9188995361328100,675.7401733398438000,4.1083908081054690,54.0288009643554700,52,99,87,79,81,15089,2147758564,2147421467,2148010011,2147874422,2147644196,2147058349,2148260635,2147198985,3581,5,13,39678
1348346024,5808,994.9199829101562000,47.3783798217773440,675.1110839843750000,4.1292109489440920,54.1007308959960940,51,101,89,80,82,15085,2147758866,2147421805,2148008941,2147871835,2147643648,2147066148,2148259803,2147198656,1300,5,13,40004
1348349624,5809,1003.2199707031250000,47.3843498229980500,675.1591796875000000,4.1276168823242190,54.0990104675293000,51,102,85,80,80,15084,2147762907,2147424201,2148007497,2147875492,2147644818,2147065362,2148265526,2147198034,3294,5,13,58449
1348353224,5811,992.6799926757812000,47.4328994750976560,675.7116699218750000,4.1093330383300780,54.1013412475585940,52,99,87,81,82,15087,2147758802,2147424475,2148010139,2147872914,2147642779,2147057261,2148260818,2147197302,212,5,13,29256
1348356824,5808,991.1699829101562000,48.1749916076660160,677.5156860351562000,4.0496039390563965,54.0202293395996100,53,98,88,79,83,15166,2147759424,2147421504,2148007652,2147873188,2147644845,2147058944,2148261028,2147196644,2321,5,13,10432
1348360424,5810,997.0599975585938000,48.8816490173339840,678.3519897460938000,4.0219020843505860,53.9303703308105500,52,99,88,80,81,15187,2147761380,2147423296,2148008246,2147870390,2147647076,2147060681,2148261988,2147195657,3344,5,13,56887
1348364024,5810,1000.2500000000000000,48.3270683288574200,677.1428833007812000,4.0619487762451170,53.9898681640625000,53,98,88,78,83,15186,2147763538,2147422555,2148009444,2147874057,2147645421,2147060672,2148257508,2147196736,3185,5,13,55921
1348367624,5812,1000.4699707031250000,48.2336311340332000,676.9365844726562000,4.0687828063964840,53.9997711181640600,53,100,88,78,80,15130,2147760676,2147423460,2148008658,2147871094,2147647259,2147066450,2148261202,2147196150,249,5,13,62721
1348371224,5810,996.8200073242188000,47.8859405517578100,677.8870849609375000,4.0373020172119140,54.0668487548828100,52,103,87,79,82,15134,2147757696,2147425161,2148011611,2147872640,2147645357,2147059254,2148259949,2147201334,499,5,13,65324
1348374824,5812,1008.7000122070312000,48.3813591003418000,676.7581787109375000,4.0746898651123050,53.9795799255371100,52,99,88,78,81,15130,2147757942,2147425910,2148009142,2147874249,2147645833,2147062125,2148260525,2147197476,3238,5,13,32998
1348378424,5811,1010.6400146484375000,48.2332000732421900,676.6616821289062000,4.0778851509094240,53.9986801147460940,53,100,88,80,82,15129,2147760356,2147422061,2148007405,2147872676,2147647579,2147059977,2148264054,2147196160,3357,5,13,55106
1348382024,5807,1008.1799926757812000,48.2624588012695300,675.9907226562500000,4.1001000404357910,53.9858589172363300,52,115,86,81,82,15130,2147756726,2147423716,2148008182,2147873216,2147643337,2147063972,2148263323,2147195821,3380,5,13,4398
1348385624,5808,1009.4400024414062000,46.8293991088867200,674.5432739257812000,4.1479988098144530,54.1670799255371100,53,99,88,81,82,15124,2147758372,2147424091,2148013037,2147873709,2147642139,2147060571,2148258276,2147196416,382,5,13,45651
1348389224,5809,1010.6699829101562000,46.7284584045410160,674.2905273437500000,4.1563630104064940,54.1806411743164060,52,99,88,79,81,15127,2147754907,2147424694,2148006793,2147871881,2147644553,2147064685,2148262518,2147200155,36,5,13,31141
1348392824,5806,1007.5200195312500000,48.0205383300781250,676.3682250976562000,4.0876030921936035,54.0272789001464840,53,100,86,79,82,15126,2147758125,2147423049,2148008923,2147874953,2147642953,2147064923,2148263771,2147195547,3519,4,13,7739
1348396424,5806,989.1799926757812000,47.7182884216308600,676.9382934570312000,4.0687260627746580,54.0787696838378900,52,100,88,79,82,15126,2147758802,2147423332,2148008649,2147875739,2147643794,2147058523,2148263597,2147196809,744,5,13,46381
1348400024,5809,992.5399780273438000,48.7812309265136700,679.8895874023438000,3.9709470272064210,53.9611701965332000,52,99,88,79,80,15122,2147759990,2147424027,2148007040,2147874916,2147643666,2147064960,2148261540,2147199798,96,5,13,53522
1348403624,5808,993.2199707031250000,49.3607788085937500,680.3527221679688000,3.9555969238281250,53.8895683288574200,53,101,86,78,82,15119,2147760713,2147428096,2148011684,2147874989,2147644361,2147063350,2148261668,2147200182,513,5,13,51650
1348407224,5805,1002.0900268554688000,48.9920616149902340,678.8433227539062000,4.0056247711181640,53.9187088012695300,53,99,86,78,83,15122,2147760795,2147422098,2148012864,2147873225,2147645302,2147062720,2148262390,2147197010,3380,5,13,8002
1348410824,5810,1000.3200073242188000,47.8087882995605500,678.1795043945312000,4.0276169776916500,54.0784683227539060,52,98,86,80,82,15124,2147758784,2147421659,2148008192,2147873600,2147643483,2147066569,2148264329,2147199021,22,5,13,6587
1348414424,5809,1018.2600097656250000,49.2504615783691400,678.8768920898438000,4.0045108795166020,53.8843498229980500,52,99,93,78,81,15123,2147763574,2147421266,2148012507,2147876352,2147645385,2147063360,2148260379,2147197814,3431,5,13,21946
1348418024,5810,1012.9199829101562000,48.5065002441406250,677.9102172851562000,4.0365371704101560,53.9793586730957000,53,100,86,79,82,15122,2147761636,2147424640,2148011117,2147872512,2147646144,2147065014,2148265828,2147197549,622,5,13,50672
1348421624,5808,1004.0000000000000000,47.6917991638183600,677.8109130859375000,4.0398249626159670,54.0911598205566400,53,99,88,79,82,15118,2147759104,2147423789,2148009974,2147874139,2147646409,2147061878,2148261412,2147199826,150,5,13,13744
1348425224,5809,1009.0399780273438000,48.0076103210449200,676.8607788085938000,4.0712928771972660,54.0309410095214840,53,127,89,78,81,15114,2147761024,2147420544,2148008521,2147874505,2147643117,2147061714,2148263204,2147195840,615,5,13,44475
1348428824,5810,1004.3900146484375000,47.3683586120605500,675.8829956054688000,4.1036620140075680,54.1072082519531250,53,100,86,78,82,15120,2147761929,2147422930,2148005549,2147874678,2147646016,2147059465,2148258139,2147197568,528,5,13,9981
1348429256,5811,1005.7399902343750000,47.3638000488281250,676.0432128906250000,4.0983600616455080,54.1124610900878900,52,99,85,80,82,15217,2147760905,2147421339,2148007067,2147874998,2147644973,2147061092,2148262573,2147195904,3442,5,13,24763
